sat.trackr.live / text

‹ back to catalog

STARLINK-4053

NORAD 53536 · 2022-101K

PAYLOAD ACTIVE UNKNOWN

§ Identity

Operator
Country
US
Launch date
2022-08-19
Launch site
AFETR
Launch vehicle
Mass (kg)
RCS (m²)

Purposes: comms

External: N2YO · Heavens-Above · Gunter

§ Orbital elements

Epoch: 2026-05-25T03:27:41.521248Z

Period
95.44 min
Inclination
53.2168°
Eccentricity
0.0001473
Mean motion
15.08826982 rev/d
Perigee alt
538.8 km
Apogee alt
540.8 km
Semi-major
6,917.9 km
B*
-4.5865e-5
RAAN
80.8231°
Arg perigee
81.4239°
Mean anomaly
278.6920°
Rev number
20,784

§ Raw data

STARLINK-40531 53536U 22101K   26145.14423057 -.00001018  00000+0 -45865-4 0  99952 53536  53.2168  80.8231 0001473  81.4239 278.6920 15.08826982207847

JSON: /api/v1/satellites/53536 · /tle

For live sub-satellite position, see the globe view (requires WebGL).

§ Visibility from observer

Set your observer location to see the next 7 days of passes ≥ 10°. The values pass through the URL so the page stays shareable.

No JS? Fill the form by hand. The geolocation button needs JavaScript.